DAL242 KBOS-EHAM

Flight info

Callsign DAL242
Flight time 3h 56m
Altitude 37000
Route LBSTA8 LBSTA DCT EBONY N381B ALLRY/M082F380 DCT 51N050W 53N040W 55N030W 56N020W DCT PIKIL DCT SOVED/N0465F390 DCT REVNU DCT GMN DCT BOFUM Q37 MALUD UL975 WAL M16 DOLAS L603 LAMSO
Aircraft A339/H-SADE1E2E3GHIJ3J5M1P2RWXY/LB2D1

Departure

Time 2026-05-04 07:22
Airport Boston Logan International Airport (KBOS)

Arrival

Time 2026-05-04 11:19
Airport Amsterdam Airport Schiphol (EHAM)
Time Latitude Longitude Altitude Speed Heading
2026-05-04 06:57 42.37053 -71.02363 31 ft 0 kts 207°
2026-05-04 06:58 42.37054 -71.02362 31 ft 0 kts 207°
2026-05-04 07:15 42.37075 -71.02348 30 ft 4 kts 195°
2026-05-04 07:15 42.37100 -71.02340 31 ft 4 kts 177°
2026-05-04 07:15 42.37126 -71.02344 30 ft 4 kts 160°
2026-05-04 07:15 42.37151 -71.02357 29 ft 4 kts 146°
2026-05-04 07:16 42.37172 -71.02378 29 ft 4 kts 137°
2026-05-04 07:16 42.37180 -71.02387 29 ft 0 kts 135°
2026-05-04 07:18 42.37162 -71.02363 30 ft 8 kts 132°
2026-05-04 07:19 42.37139 -71.02284 31 ft 9 kts 97°
2026-05-04 07:19 42.37170 -71.02221 31 ft 8 kts 46°
2026-05-04 07:19 42.37220 -71.02153 31 ft 14 kts 49°
2026-05-04 07:19 42.37234 -71.02022 31 ft 15 kts 95°
2026-05-04 07:20 42.37277 -71.01904 31 ft 15 kts 38°
2026-05-04 07:20 42.37365 -71.01838 31 ft 15 kts 40°
2026-05-04 07:20 42.37372 -71.01723 31 ft 13 kts 124°
2026-05-04 07:20 42.37265 -71.01575 31 ft 52 kts 136°
2026-05-04 07:22 42.33100 -70.91318 2788 ft 250 kts 105°
2026-05-04 07:22 42.32629 -70.88951 3067 ft 271 kts 106°
2026-05-04 07:23 42.32342 -70.86366 3356 ft 287 kts 88°
2026-05-04 07:23 42.32679 -70.83723 4008 ft 285 kts 72°
2026-05-04 07:23 42.33197 -70.81107 4546 ft 291 kts 72°
2026-05-04 07:23 42.33701 -70.78444 5133 ft 293 kts 72°
2026-05-04 07:24 42.34499 -70.75944 5707 ft 287 kts 49°
2026-05-04 07:24 42.35923 -70.74151 6319 ft 275 kts 22°
2026-05-04 07:24 42.37669 -70.73251 6925 ft 266 kts
2026-05-04 07:24 42.39485 -70.72737 7530 ft 267 kts
2026-05-04 07:25 42.41312 -70.72235 8145 ft 269 kts
2026-05-04 07:26 42.57489 -70.67201 11648 ft 331 kts
2026-05-04 07:27 42.66649 -70.64408 13778 ft 343 kts
2026-05-04 07:27 42.72513 -70.63024 14970 ft 347 kts
2026-05-04 07:27 42.78124 -70.61721 16069 ft 358 kts
2026-05-04 07:27 42.85893 -70.52223 17899 ft 395 kts 44°
2026-05-04 07:28 42.93186 -70.40807 19642 ft 403 kts 43°
2026-05-04 07:28 43.00676 -70.29134 21383 ft 413 kts 43°
2026-05-04 07:28 43.08274 -70.17204 23120 ft 422 kts 43°
2026-05-04 07:28 43.12653 -70.10306 23995 ft 428 kts 43°
2026-05-04 07:29 43.17158 -70.03199 24805 ft 434 kts 43°
2026-05-04 07:29 43.25145 -69.90538 26232 ft 444 kts 43°
2026-05-04 07:29 43.33280 -69.77615 27607 ft 453 kts 44°
2026-05-04 07:29 43.38057 -69.69986 28367 ft 459 kts 44°
2026-05-04 07:30 43.42234 -69.63296 29001 ft 463 kts 44°
2026-05-04 07:30 43.46444 -69.56539 29606 ft 468 kts 44°
2026-05-04 07:30 43.50702 -69.49689 30186 ft 473 kts 45°
2026-05-04 07:30 43.55400 -69.42114 30740 ft 478 kts 45°
2026-05-04 07:31 43.60334 -69.34136 31305 ft 484 kts 45°
2026-05-04 07:31 43.64734 -69.27002 31787 ft 489 kts 46°
2026-05-04 07:33 44.05899 -68.59400 34745 ft 507 kts 48°
2026-05-04 07:33 44.10980 -68.50944 35020 ft 508 kts 48°
2026-05-04 07:33 44.20059 -68.35782 35555 ft 509 kts 48°
2026-05-04 07:33 44.25986 -68.25826 35880 ft 509 kts 49°
2026-05-04 07:34 44.30494 -68.18227 36131 ft 509 kts 49°
2026-05-04 07:34 44.35009 -68.10604 36380 ft 509 kts 49°
2026-05-04 07:34 44.40742 -68.00898 36681 ft 509 kts 49°
2026-05-04 07:34 44.49738 -67.85599 36740 ft 507 kts 49°
2026-05-04 07:35 44.67468 -67.55204 36740 ft 504 kts 49°
2026-05-04 07:35 44.79075 -67.35130 36726 ft 512 kts 50°
2026-05-04 07:36 44.90957 -67.14211 36719 ft 518 kts 54°
2026-05-04 07:38 45.23220 -66.46401 36617 ft 521 kts 55°
2026-05-04 07:38 45.31235 -66.29328 36596 ft 520 kts 56°
2026-05-04 07:39 45.39247 -66.12143 36582 ft 520 kts 56°
2026-05-04 07:39 45.49724 -65.89510 36608 ft 519 kts 56°
2026-05-04 07:40 45.61391 -65.64092 36575 ft 518 kts 56°
2026-05-04 07:40 45.69274 -65.46792 36567 ft 520 kts 56°
2026-05-04 07:41 45.83878 -65.14450 36583 ft 519 kts 57°
2026-05-04 07:41 45.99269 -64.79960 36443 ft 521 kts 57°
2026-05-04 07:42 46.09252 -64.57359 36472 ft 520 kts 57°
2026-05-04 07:42 46.18728 -64.35743 36444 ft 521 kts 58°
2026-05-04 07:43 46.31723 -64.05827 36342 ft 523 kts 58°
2026-05-04 07:43 46.40043 -63.86487 36344 ft 522 kts 58°
2026-05-04 07:44 46.47697 -63.68582 36319 ft 522 kts 59°
2026-05-04 07:44 46.55319 -63.50638 36294 ft 522 kts 59°
2026-05-04 07:45 46.66138 -63.24974 36239 ft 521 kts 59°
2026-05-04 07:45 46.75771 -63.01912 36205 ft 519 kts 60°
2026-05-04 07:46 46.85000 -62.79628 36166 ft 519 kts 60°
2026-05-04 07:46 46.99834 -62.43420 36174 ft 516 kts 61°
2026-05-04 07:47 47.14478 -62.07211 36126 ft 513 kts 61°
2026-05-04 07:49 47.71316 -60.61931 36014 ft 511 kts 64°
2026-05-04 07:49 47.85218 -60.25160 36094 ft 509 kts 64°
2026-05-04 07:50 47.99007 -59.88183 36075 ft 510 kts 65°
2026-05-04 07:50 48.10341 -59.57399 36183 ft 509 kts 65°
2026-05-04 07:51 48.17284 -59.38351 36134 ft 511 kts 66°
2026-05-04 07:51 48.24072 -59.19602 36163 ft 512 kts 66°
2026-05-04 07:52 48.30833 -59.00794 36163 ft 512 kts 66°
2026-05-04 07:52 48.40645 -58.73265 36181 ft 513 kts 66°
2026-05-04 07:54 48.71024 -57.86097 36243 ft 506 kts 69°
2026-05-04 07:55 48.77483 -57.67177 36280 ft 505 kts 69°
2026-05-04 07:55 48.83904 -57.48226 36300 ft 505 kts 69°
2026-05-04 07:56 48.90296 -57.29231 36318 ft 505 kts 69°
2026-05-04 07:56 48.96641 -57.10231 36323 ft 505 kts 69°
2026-05-04 07:57 49.02976 -56.91118 36341 ft 506 kts 69°
2026-05-04 07:57 49.11454 -56.65315 36335 ft 507 kts 70°
2026-05-04 07:58 49.17681 -56.46192 36390 ft 507 kts 70°
2026-05-04 07:58 49.20827 -56.36468 36391 ft 507 kts 70°
2026-05-04 07:59 49.23930 -56.26845 36401 ft 508 kts 70°
2026-05-04 07:59 49.27049 -56.17136 36406 ft 508 kts 70°
2026-05-04 08:00 49.29940 -56.08103 36402 ft 506 kts 70°
2026-05-04 08:02 49.42180 -55.69222 36457 ft 508 kts 71°
2026-05-04 08:02 49.45209 -55.59393 36482 ft 509 kts 71°
2026-05-04 08:03 49.48262 -55.49685 36426 ft 512 kts 70°
2026-05-04 08:03 49.51417 -55.39874 36432 ft 512 kts 70°
2026-05-04 08:04 49.54498 -55.30025 36443 ft 511 kts 71°
2026-05-04 08:04 49.57560 -55.20119 36449 ft 511 kts 71°
2026-05-04 08:05 49.60568 -55.10338 36449 ft 511 kts 71°
2026-05-04 08:05 49.63608 -55.00417 36452 ft 511 kts 71°
2026-05-04 08:06 49.66635 -54.90503 36462 ft 511 kts 71°
2026-05-04 08:06 49.69644 -54.80606 36466 ft 511 kts 71°
2026-05-04 08:08 49.81611 -54.40846 36500 ft 511 kts 72°
2026-05-04 08:11 49.96704 -53.89730 36536 ft 512 kts 72°
2026-05-04 08:11 50.01109 -53.74612 36545 ft 512 kts 72°
2026-05-04 08:12 50.04042 -53.64492 36556 ft 513 kts 72°
2026-05-04 08:12 50.06947 -53.54429 36565 ft 513 kts 72°
2026-05-04 08:13 50.09863 -53.44282 36576 ft 513 kts 72°
2026-05-04 08:13 50.12772 -53.34116 36577 ft 514 kts 72°
2026-05-04 08:14 50.15676 -53.23927 36594 ft 514 kts 72°
2026-05-04 08:16 50.27193 -52.83072 36625 ft 514 kts 72°
2026-05-04 08:16 50.30056 -52.72814 36654 ft 514 kts 72°
2026-05-04 08:17 50.32912 -52.62560 36706 ft 514 kts 72°
2026-05-04 08:17 50.35758 -52.52305 36771 ft 513 kts 72°
2026-05-04 08:19 50.45647 -52.16314 36970 ft 514 kts 72°
2026-05-04 08:19 50.47051 -52.11157 37009 ft 514 kts 72°
2026-05-04 08:20 50.49838 -52.00794 37069 ft 514 kts 72°
2026-05-04 08:20 50.52454 -51.90372 37189 ft 513 kts 74°
2026-05-04 08:21 50.55152 -51.80034 37307 ft 514 kts 72°
2026-05-04 08:21 50.57879 -51.69635 37402 ft 515 kts 73°
2026-05-04 08:22 50.60573 -51.59194 37514 ft 515 kts 73°
2026-05-04 08:24 50.69946 -51.22364 37734 ft 520 kts 73°
2026-05-04 08:24 50.71284 -51.17059 37736 ft 521 kts 73°
2026-05-04 08:24 50.73941 -51.06485 37739 ft 522 kts 73°
2026-05-04 08:25 50.76613 -50.95801 37727 ft 524 kts 73°
2026-05-04 08:25 50.79283 -50.85074 37741 ft 525 kts 73°
2026-05-04 08:27 50.89903 -50.41885 37769 ft 528 kts 73°
2026-05-04 08:28 50.92541 -50.31024 37780 ft 528 kts 73°
2026-05-04 08:28 50.95174 -50.20129 37787 ft 529 kts 72°
2026-05-04 08:29 50.97794 -50.09235 37792 ft 529 kts 72°
2026-05-04 08:31 51.08582 -49.65724 37809 ft 530 kts 71°
2026-05-04 08:33 51.19413 -49.21920 37856 ft 531 kts 71°
2026-05-04 08:35 51.30046 -48.77941 37860 ft 532 kts 71°
2026-05-04 08:35 51.32684 -48.66889 37867 ft 532 kts 71°
2026-05-04 08:37 51.41829 -48.28142 37889 ft 532 kts 71°
2026-05-04 08:38 51.44002 -48.18830 37897 ft 532 kts 71°
2026-05-04 08:38 51.46571 -48.07771 37901 ft 532 kts 71°
2026-05-04 08:40 51.56793 -47.63178 37926 ft 531 kts 70°
2026-05-04 08:41 51.59319 -47.52014 37934 ft 531 kts 70°
2026-05-04 08:41 51.61832 -47.40846 37940 ft 530 kts 70°
2026-05-04 08:42 51.64329 -47.29692 37948 ft 530 kts 70°
2026-05-04 08:42 51.66816 -47.18522 37953 ft 529 kts 70°
2026-05-04 08:43 51.69269 -47.07446 37959 ft 528 kts 70°
2026-05-04 08:43 51.71725 -46.96299 37967 ft 527 kts 70°
2026-05-04 08:44 51.74164 -46.85165 37971 ft 526 kts 70°
2026-05-04 08:46 51.83782 -46.40672 37992 ft 523 kts 70°
2026-05-04 08:46 51.86152 -46.29559 38004 ft 522 kts 70°
2026-05-04 08:47 51.88506 -46.18459 38001 ft 521 kts 70°
2026-05-04 08:47 51.90844 -46.07371 38010 ft 520 kts 70°
2026-05-04 08:48 51.93164 -45.96310 38017 ft 518 kts 70°
2026-05-04 08:48 51.95462 -45.85296 38018 ft 518 kts 70°
2026-05-04 08:49 51.97769 -45.74172 38024 ft 517 kts 70°
2026-05-04 08:50 52.05693 -45.35495 38041 ft 517 kts 71°
2026-05-04 08:51 52.07937 -45.24403 38047 ft 517 kts 71°
2026-05-04 08:51 52.10169 -45.13304 38054 ft 517 kts 71°
2026-05-04 08:52 52.12396 -45.02169 38058 ft 517 kts 71°
2026-05-04 08:52 52.14343 -44.92384 38067 ft 517 kts 71°
2026-05-04 08:54 52.23114 -44.47671 38102 ft 519 kts 71°
2026-05-04 08:55 52.25287 -44.36432 38089 ft 520 kts 71°
2026-05-04 08:55 52.27440 -44.25230 38104 ft 520 kts 71°
2026-05-04 09:01 52.49609 -43.05802 38161 ft 532 kts 71°
2026-05-04 09:01 52.51695 -42.94153 38179 ft 532 kts 71°
2026-05-04 09:02 52.53770 -42.82488 38187 ft 531 kts 71°
2026-05-04 09:02 52.55813 -42.70934 38193 ft 530 kts 71°
2026-05-04 09:03 52.57859 -42.59285 38206 ft 529 kts 71°
2026-05-04 09:03 52.59883 -42.47687 38213 ft 527 kts 71°
2026-05-04 09:04 52.61890 -42.36110 38216 ft 525 kts 71°
2026-05-04 09:04 52.63877 -42.24577 38221 ft 523 kts 71°
2026-05-04 09:05 52.65850 -42.13042 38221 ft 521 kts 71°
2026-05-04 09:05 52.67786 -42.01659 38217 ft 519 kts 71°
2026-05-04 09:06 52.69736 -41.90113 38221 ft 518 kts 71°
2026-05-04 09:08 52.82376 -41.13378 38242 ft 514 kts 71°
2026-05-04 09:08 52.86037 -40.90471 38256 ft 514 kts 72°
2026-05-04 09:09 52.89647 -40.67573 38267 ft 514 kts 72°
2026-05-04 09:09 52.93167 -40.44941 38257 ft 513 kts 72°
2026-05-04 09:10 52.96700 -40.22017 38277 ft 513 kts 73°
2026-05-04 09:10 53.00191 -39.99077 38295 ft 512 kts 73°
2026-05-04 09:10 53.02675 -39.88090 38289 ft 507 kts 62°
2026-05-04 09:11 53.05550 -39.77561 38297 ft 507 kts 63°
2026-05-04 09:11 53.16234 -39.34946 38336 ft 506 kts 65°
2026-05-04 09:12 53.26850 -38.91288 38304 ft 507 kts 65°
2026-05-04 09:14 53.59843 -37.49623 38260 ft 507 kts 67°
2026-05-04 09:14 53.62327 -37.38567 38368 ft 506 kts 68°
2026-05-04 09:14 53.64810 -37.27461 38341 ft 506 kts 68°
2026-05-04 09:15 53.69674 -37.05523 38393 ft 505 kts 68°
2026-05-04 09:15 53.75975 -36.76756 38423 ft 504 kts 68°
2026-05-04 09:17 54.14581 -34.90986 38398 ft 508 kts 70°
2026-05-04 09:18 54.20056 -34.63179 38382 ft 508 kts 70°
2026-05-04 09:18 54.24500 -34.40297 38385 ft 508 kts 71°
2026-05-04 09:19 54.28912 -34.17314 38392 ft 508 kts 71°
2026-05-04 09:19 54.33278 -33.94287 38391 ft 508 kts 71°
2026-05-04 09:20 54.36812 -33.75447 38393 ft 508 kts 71°
2026-05-04 09:20 54.45337 -33.29191 38326 ft 509 kts 71°
2026-05-04 09:21 54.50588 -33.00112 38385 ft 508 kts 72°
2026-05-04 09:21 54.54036 -32.80767 38385 ft 508 kts 72°
2026-05-04 09:22 54.58140 -32.57463 38385 ft 508 kts 72°
2026-05-04 09:22 54.62195 -32.34134 38382 ft 508 kts 72°
2026-05-04 09:23 54.66211 -32.10730 38379 ft 507 kts 72°
2026-05-04 09:23 54.70173 -31.87331 38379 ft 507 kts 73°
2026-05-04 09:25 54.85495 -30.93739 38377 ft 505 kts 73°
2026-05-04 09:26 54.89218 -30.70193 38375 ft 505 kts 74°
2026-05-04 09:26 54.92899 -30.46587 38373 ft 505 kts 74°
2026-05-04 09:27 54.96540 -30.23007 38375 ft 505 kts 74°
2026-05-04 09:27 55.00112 -29.99409 38365 ft 504 kts 75°
2026-05-04 09:28 55.03439 -29.75596 38364 ft 504 kts 75°
2026-05-04 09:28 55.06811 -29.52004 38363 ft 504 kts 75°
2026-05-04 09:29 55.10125 -29.28191 38363 ft 504 kts 76°
2026-05-04 09:29 55.13369 -29.04430 38361 ft 504 kts 76°
2026-05-04 09:30 55.16579 -28.80533 38360 ft 504 kts 76°
2026-05-04 09:30 55.19741 -28.56608 38360 ft 503 kts 76°
2026-05-04 09:31 55.22850 -28.32702 38354 ft 503 kts 76°
2026-05-04 09:31 55.25908 -28.08782 38350 ft 503 kts 76°
2026-05-04 09:32 55.28919 -27.84830 38351 ft 502 kts 77°
2026-05-04 09:34 55.46241 -26.38179 38234 ft 503 kts 78°
2026-05-04 09:34 55.47580 -26.26123 38307 ft 501 kts 78°
2026-05-04 09:34 55.50226 -26.01965 38324 ft 501 kts 78°
2026-05-04 09:35 55.52819 -25.77818 38323 ft 501 kts 78°
2026-05-04 09:35 55.55368 -25.53608 38320 ft 501 kts 79°
2026-05-04 09:37 55.65072 -24.56605 38309 ft 500 kts 79°
2026-05-04 09:38 55.68445 -24.20835 38401 ft 498 kts 80°
2026-05-04 09:38 55.72862 -23.72138 38286 ft 500 kts 80°
2026-05-04 09:39 55.77084 -23.23342 38212 ft 501 kts 81°
2026-05-04 09:39 55.81113 -22.74453 38243 ft 500 kts 81°
2026-05-04 09:40 55.84945 -22.25484 38280 ft 499 kts 81°
2026-05-04 09:40 55.88366 -21.79425 38186 ft 501 kts 82°
2026-05-04 09:42 55.95010 -20.82146 38234 ft 500 kts 83°
2026-05-04 09:43 55.96556 -20.57694 38236 ft 500 kts 83°
2026-05-04 09:43 55.98072 -20.33020 38227 ft 499 kts 83°
2026-05-04 09:44 56.00170 -19.93421 38190 ft 499 kts 89°
2026-05-04 09:46 56.01688 -18.94393 38201 ft 499 kts 88°
2026-05-04 09:46 56.01951 -18.69588 38174 ft 499 kts 88°
2026-05-04 09:47 56.02166 -18.44789 38205 ft 499 kts 89°
2026-05-04 09:49 56.02529 -17.46680 38202 ft 499 kts 89°
2026-05-04 09:51 56.02025 -16.37444 38169 ft 500 kts 90°
2026-05-04 09:51 56.01773 -16.12559 38156 ft 500 kts 91°
2026-05-04 09:52 56.01504 -15.90266 38156 ft 500 kts 91°
2026-05-04 09:52 56.01163 -15.65827 38159 ft 500 kts 91°
2026-05-04 09:53 56.00767 -15.40962 38157 ft 500 kts 91°
2026-05-04 09:53 56.00301 -15.14985 38145 ft 500 kts 91°
2026-05-04 09:54 56.00087 -14.69942 38152 ft 499 kts 89°
2026-05-04 09:54 56.00093 -14.43395 38116 ft 500 kts 89°
2026-05-04 09:55 56.00084 -14.31004 38146 ft 499 kts 89°
2026-05-04 09:55 56.00061 -14.18603 38145 ft 499 kts 90°
2026-05-04 09:56 55.99805 -14.06229 38136 ft 499 kts 98°
2026-05-04 09:56 55.97775 -13.94443 38134 ft 498 kts 116°
2026-05-04 09:57 55.94120 -13.83961 38139 ft 497 kts 124°
2026-05-04 09:57 55.90331 -13.73674 38143 ft 496 kts 124°
2026-05-04 09:58 55.86540 -13.63379 38141 ft 496 kts 124°
2026-05-04 09:58 55.78222 -13.40993 38141 ft 496 kts 124°
2026-05-04 10:00 55.48059 -12.61508 38142 ft 493 kts 124°
2026-05-04 10:04 54.88008 -11.10513 38155 ft 489 kts 124°
2026-05-04 10:04 54.80098 -10.91295 38143 ft 488 kts 124°
2026-05-04 10:05 54.70306 -10.67717 38148 ft 487 kts 124°
2026-05-04 10:05 54.61465 -10.46609 38143 ft 487 kts 124°
2026-05-04 10:06 54.48606 -10.16157 38160 ft 484 kts 122°
2026-05-04 10:06 54.45532 -10.05871 38175 ft 481 kts 108°
2026-05-04 10:08 54.39278 -9.73227 38415 ft 479 kts 106°
2026-05-04 10:08 54.38222 -9.67801 38438 ft 479 kts 106°
2026-05-04 10:08 54.36103 -9.56957 38592 ft 477 kts 106°
2026-05-04 10:09 54.35063 -9.51660 38813 ft 474 kts 106°
2026-05-04 10:09 54.33998 -9.46250 38897 ft 474 kts 107°
2026-05-04 10:09 54.31894 -9.35597 39017 ft 474 kts 107°
2026-05-04 10:10 54.30116 -9.26642 39117 ft 474 kts 107°
2026-05-04 10:10 54.27980 -9.15941 39119 ft 474 kts 107°
2026-05-04 10:11 54.25855 -9.05346 39126 ft 474 kts 107°
2026-05-04 10:11 54.23702 -8.94676 39123 ft 474 kts 107°
2026-05-04 10:12 54.21587 -8.84247 39124 ft 474 kts 107°
2026-05-04 10:12 54.19412 -8.73580 39127 ft 474 kts 107°
2026-05-04 10:13 54.17233 -8.62950 39125 ft 474 kts 108°
2026-05-04 10:13 54.15044 -8.52328 39127 ft 474 kts 108°
2026-05-04 10:14 54.12845 -8.41711 39118 ft 475 kts 108°
2026-05-04 10:16 54.04135 -8.00218 39097 ft 475 kts 108°
2026-05-04 10:16 54.01893 -7.89672 39101 ft 476 kts 108°
2026-05-04 10:17 53.99634 -7.79101 39095 ft 476 kts 109°
2026-05-04 10:19 53.82114 -6.98920 39090 ft 478 kts 109°
2026-05-04 10:19 53.77398 -6.77855 39093 ft 478 kts 109°
2026-05-04 10:20 53.72661 -6.56910 39089 ft 477 kts 110°
2026-05-04 10:20 53.67886 -6.36008 39089 ft 476 kts 110°
2026-05-04 10:21 53.63618 -6.15162 39089 ft 474 kts 103°
2026-05-04 10:21 53.60451 -5.93648 39087 ft 474 kts 103°
2026-05-04 10:22 53.55405 -5.60783 39088 ft 474 kts 104°
2026-05-04 10:23 53.53436 -5.38904 39086 ft 474 kts 91°
2026-05-04 10:25 53.50440 -4.42736 39084 ft 477 kts 94°
2026-05-04 10:25 53.49621 -4.20703 39075 ft 478 kts 94°
2026-05-04 10:26 53.47766 -3.92291 39075 ft 478 kts 105°
2026-05-04 10:26 53.43468 -3.71147 39053 ft 479 kts 110°
2026-05-04 10:27 53.41098 -3.55341 39068 ft 480 kts 97°
2026-05-04 10:27 53.40227 -3.35344 39078 ft 485 kts 95°
2026-05-04 10:28 53.39703 -3.24163 39072 ft 486 kts 95°
2026-05-04 10:28 53.39173 -3.12926 39073 ft 487 kts 95°
2026-05-04 10:29 53.38729 -3.01597 39074 ft 487 kts 94°
2026-05-04 10:29 53.38327 -2.90316 39074 ft 487 kts 94°
2026-05-04 10:30 53.37894 -2.78973 39076 ft 488 kts 95°
2026-05-04 10:30 53.37445 -2.67660 39077 ft 488 kts 95°
2026-05-04 10:31 53.36984 -2.56342 39074 ft 488 kts 95°
2026-05-04 10:32 53.34745 -2.16794 39072 ft 488 kts 101°
2026-05-04 10:33 53.33592 -2.05618 39072 ft 488 kts 101°
2026-05-04 10:33 53.32437 -1.94434 39073 ft 488 kts 101°
2026-05-04 10:34 53.31267 -1.83240 39075 ft 489 kts 101°
2026-05-04 10:34 53.30084 -1.72048 39073 ft 489 kts 101°
2026-05-04 10:35 53.28892 -1.60860 39075 ft 489 kts 101°
2026-05-04 10:35 53.27695 -1.49742 39073 ft 489 kts 101°
2026-05-04 10:36 53.26479 -1.38561 39073 ft 489 kts 102°
2026-05-04 10:36 53.25255 -1.27396 39069 ft 489 kts 102°
2026-05-04 10:37 53.24018 -1.16208 39064 ft 489 kts 102°
2026-05-04 10:37 53.22772 -1.05045 39061 ft 489 kts 102°
2026-05-04 10:39 53.18339 -0.66141 39046 ft 490 kts 103°
2026-05-04 10:40 53.17043 -0.54973 39045 ft 490 kts 103°
2026-05-04 10:40 53.15746 -0.43905 39046 ft 490 kts 103°
2026-05-04 10:41 53.14459 -0.33013 39049 ft 490 kts 103°
2026-05-04 10:41 53.13130 -0.21856 39043 ft 490 kts 103°
2026-05-04 10:42 53.11801 -0.10786 39047 ft 490 kts 103°
2026-05-04 10:42 53.10687 -0.01581 39045 ft 490 kts 103°
2026-05-04 10:43 53.09268 0.10050 39048 ft 491 kts 103°
2026-05-04 10:45 53.03734 0.54475 39047 ft 491 kts 104°
2026-05-04 10:45 53.02321 0.65592 39044 ft 492 kts 104°
2026-05-04 10:46 53.00895 0.76727 39047 ft 492 kts 104°
2026-05-04 10:46 52.99461 0.87831 39048 ft 492 kts 104°
2026-05-04 10:47 52.98016 0.98937 39048 ft 492 kts 104°
2026-05-04 10:47 52.96666 1.10088 39045 ft 493 kts 103°
2026-05-04 10:49 52.91505 1.54611 39044 ft 494 kts 104°
2026-05-04 10:50 52.90171 1.65764 39042 ft 494 kts 104°
2026-05-04 10:51 52.85500 2.04151 35159 ft 484 kts 107°
2026-05-04 10:52 52.84839 2.09513 34238 ft 481 kts 107°
2026-05-04 10:52 52.84171 2.14917 33027 ft 481 kts 108°
2026-05-04 10:52 52.83495 2.20338 31940 ft 478 kts 108°
2026-05-04 10:54 52.78939 2.56297 27334 ft 434 kts 109°
2026-05-04 10:54 52.78314 2.61136 26739 ft 429 kts 109°
2026-05-04 10:56 52.74120 2.93224 22737 ft 404 kts 108°
2026-05-04 10:56 52.73457 2.97446 22186 ft 394 kts 114°
2026-05-04 10:56 52.72478 3.01583 21649 ft 384 kts 121°
2026-05-04 10:57 52.71240 3.05415 21123 ft 374 kts 127°
2026-05-04 10:57 52.70341 3.07906 20764 ft 379 kts 126°
2026-05-04 10:57 52.68961 3.11746 20212 ft 405 kts 126°
2026-05-04 10:57 52.67514 3.15823 19605 ft 416 kts 125°
2026-05-04 10:58 52.66065 3.19949 19011 ft 417 kts 124°
2026-05-04 10:58 52.64619 3.24079 18459 ft 413 kts 124°
2026-05-04 10:58 52.63193 3.28146 17755 ft 406 kts 124°
2026-05-04 10:58 52.61835 3.32010 17206 ft 395 kts 124°
2026-05-04 10:59 52.60470 3.35879 16649 ft 385 kts 124°
2026-05-04 10:59 52.59229 3.39727 16080 ft 379 kts 118°
2026-05-04 10:59 52.58325 3.43774 15524 ft 375 kts 110°
2026-05-04 10:59 52.57772 3.47935 14980 ft 370 kts 103°
2026-05-04 11:00 52.57361 3.52082 14425 ft 364 kts 103°
2026-05-04 11:01 52.54357 3.80136 10961 ft 370 kts 103°
2026-05-04 11:02 52.53919 3.84213 10809 ft 354 kts 104°
2026-05-04 11:02 52.53503 3.88099 10630 ft 336 kts 104°
2026-05-04 11:05 52.46624 4.33313 8998 ft 291 kts 105°
2026-05-04 11:06 52.46232 4.36567 8993 ft 292 kts 105°
2026-05-04 11:06 52.45842 4.39814 8989 ft 293 kts 105°
2026-05-04 11:06 52.45451 4.43079 8990 ft 293 kts 105°
2026-05-04 11:06 52.45059 4.46338 8998 ft 292 kts 105°
2026-05-04 11:08 52.42403 4.68277 7172 ft 256 kts 107°
2026-05-04 11:10 52.40411 4.89448 4868 ft 238 kts 90°
2026-05-04 11:12 52.40691 5.05922 2884 ft 192 kts 120°
2026-05-04 11:12 52.39890 5.07587 2627 ft 179 kts 147°
2026-05-04 11:12 52.38804 5.08474 2526 ft 179 kts 169°
2026-05-04 11:12 52.37592 5.08656 2446 ft 172 kts 185°
2026-05-04 11:13 52.36390 5.08626 2378 ft 175 kts 184°
2026-05-04 11:13 52.35228 5.08212 2299 ft 170 kts 206°
2026-05-04 11:13 52.34289 5.07137 2274 ft 161 kts 220°
2026-05-04 11:13 52.33465 5.05946 2275 ft 157 kts 226°
2026-05-04 11:14 52.32904 5.04388 2227 ft 161 kts 248°
2026-05-04 11:14 52.32681 5.02615 2078 ft 157 kts 261°
2026-05-04 11:14 52.32605 5.00873 2013 ft 158 kts 264°
2026-05-04 11:16 52.32184 4.89587 1276 ft 137 kts 263°
2026-05-04 11:16 52.32134 4.88201 1107 ft 140 kts 263°
2026-05-04 11:16 52.32081 4.86617 891 ft 135 kts 263°
2026-05-04 11:17 52.32024 4.85075 700 ft 135 kts 265°
2026-05-04 11:17 52.31969 4.83527 516 ft 138 kts 267°
2026-05-04 11:19 52.31619 4.77405 5 ft 15 kts 237°
2026-05-04 11:19 52.31567 4.77252 5 ft 15 kts 239°
2026-05-04 11:19 52.31467 4.77197 5 ft 16 kts 183°
2026-05-04 11:19 52.31355 4.77160 6 ft 15 kts 206°
2026-05-04 11:20 52.31270 4.77069 5 ft 10 kts 214°
2026-05-04 11:20 52.31266 4.76978 5 ft 9 kts 293°
2026-05-04 11:20 52.31284 4.76929 5 ft 2 kts 302°
2026-05-04 11:20 52.31289 4.76916 5 ft 0 kts 302°